ATLAS 5 CENTAUR R/B, 40375

Orbit data source: Space-Track

ATLAS 5 CENTAUR R/B, 40375 is space debris in HEO originally from a launch on Wed, 21 Jan 2015 UTC launched from the Air Force Eastern Test Range (AFETR). Debris objects in space refer to the collection of defunct objects orbiting the Earth. Examples of debris include non-operational satellites, rocket bodies, and fragments generated from explosions, collisions, or faulty payload assembly.

Loading next visibility...
Identifier
40375, 2015-002B
Orbit
HEO
Country
Flag of USUS
Related business
Manufacturer
LMSS Denver
Mission
Spacecraft
Bus & Motor
CENTAUR SEC, RL10C-1
Mass
~2,020 kg wet, 2,020 kg dry
Launch date (UTC)
2015-01-21 (11 years ago)
Launch vehicle
Unknown
Launch site
Air Force Eastern Test Range (AFETR)
Object type
Payload
Rocket body
Debris
Shape & HBR
Cyl + 1 Nozzle, 5.8 m
Radar Cross Section
32.260 m², Large (>1 m²)

Expand to show TLE details & history
Last TLE update: 20 hours ago

TLE from 20 hours ago
0 ATLAS 5 CENTAUR R/B
1 40375U 15002B   25299.02068562 -.00000291  00000-0  00000-0 0  9996
2 40375  19.1482 332.4255 6075403  48.2678 349.8497  2.08931737 82161
Epoch: 2025-10-26T00:29Z
TLE epoch observation values (Epoch: 2025-10-26T00:29:47.237Z)
Latitude
-0.0001°
Longitude
-69.69748°
Altitude
5,206.294 km
Speed
7.307 km/s
True Right ascension
22h 09m 34s
True Declination
0° 00' 00"
Sunlit
Object was in daylight at epoch
Visualization orbit readout
Latitude
Unknown
Longitude
Unknown
Altitude
Unknown
Speed
Unknown
Apparent Right ascension
Unknown
Apparent Declination
Unknown
Sunlit
N/A
Visualization observer readout
Local Sidereal Time
15:39:08
Azimuth
Unknown
Elevation
Unknown
Doppler factor
Unknown
Orbital elements
Apogee altitude
35,175.491 km
Perigee altitude
3,766.632 km
Semi-major axis
25,849.198 km
Eccentricity
0.60754
Inclination
19.1482°
RAAN
332.4255°
Arg. of periapsis
48.2678°
True anomaly
312.21688°
Mean anomaly
349.8497°
Eccentric anomaly
335.30883°
Mean motion
0.52224 °/min
Orbital period
689.33 mins
BSTAR
0
Loading maneuver chart data...
Computing Atmospheric mass density...
Loading historical data...
Loading historical data...
Loading historical data...
Loading historical data...
Loading historical data...
Loading historical data...
Loading historical data...
Other satellites on launch #2 in the year 2015 (2015-01-21 UTC)

Documentation

Showing up to 5 results
|